Gibraltar Airport

Airport
ICAO code: 
LXGB
IATA Code: 
GIB
Summary
ICAO Region: 
EUR
Territory: 
Location: 
Gibraltar, Gibraltar
Serving: 
Gibraltar
Elevation: 
10 ft
Coordinates: 
Aerial View: 
36° 9' 3.583" N, 5° 20' 54.021" W
Airport RE: 
Crosswind Landings
Airport WX: 
Low Level Turbulence
Metar
Observation
LXGB 261050Z 08026G37KT 7000 VCSH BKN017 SCT024 15/11 Q1024 NOSIG RMK WHT WHT
Station
Gibraltar
Date/Time
2022-01-26 10:50:00
Wind direction
80°
Wind speed
26 kts
Lowest cloud amount
broken clouds
Temperature
15°C
Dew point
11°C
Humidity
77%
QNH
1024 hPa
Weather condition
n/a

International airport serving the British Overseas Territory of Gibraltar.

Climatology

Dry-summer subtropical ”Mediterranean" climate (Köppen climate classification Csa) - characterized by hot, dry summers and mild winters. During the summer, subtropical high pressure cells dominate, making rainfall unlikely except for the occasional thunderstorm. In the winter, periodic storms bring rain.

Runways

Designator Length Width Surface Rops
9/27 1829 46 ASP Yes/Yes
Airport map: 
Aerial View: 

SKYbrary Partners:

Safety knowledge contributed by: